Location: Leipzig
(51.3392°N, 12.3528°E)
Time: 11:35:51
(UTC+02:00)

ISS - Visible Passes

Search period start: 25 September 2017 00:00
Search period end: 05 October 2017 00:00
Orbit: 401 x 407 km, 51.6° (Epoch: 25 September)

Date Brightness Start Highest point End Pass type
(mag) Time Alt. Az. Time Alt. Az. Time Alt. Az.
26 Sep -2.0 20:28:05 10° SSW 20:29:49 18° SSE 20:29:49 18° SSE visible
27 Sep -1.7 19:36:56 10° SSE 19:38:22 12° SE 19:39:48 10° ESE visible
27 Sep -2.1 21:11:04 10° SW 21:12:39 24° SW 21:12:39 24° SW visible
28 Sep -3.0 20:18:59 10° SW 20:21:57 33° SSE 20:22:38 30° SE visible
28 Sep -0.7 21:54:57 10° W 21:55:17 12° W 21:55:17 12° W visible
29 Sep -2.3 19:27:07 10° SSW 19:29:43 22° SE 19:32:21 10° E visible
29 Sep -3.2 21:02:34 10° WSW 21:05:07 49° SW 21:05:07 49° SW visible
30 Sep -3.6 20:10:16 10° SW 20:13:29 53° SSE 20:14:51 29° E visible
30 Sep -1.1 21:46:36 10° W 21:47:31 17° W 21:47:31 17° W visible
01 Oct -3.0 19:18:05 10° SW 19:21:08 37° SSE 19:24:12 10° E visible
01 Oct -3.7 20:54:10 10° W 20:57:10 73° W 20:57:10 73° W visible
02 Oct -3.9 20:01:44 10° WSW 20:05:01 78° SSE 20:06:45 25° E visible
02 Oct -1.2 21:38:13 10° W 21:39:24 20° W 21:39:24 20° W visible
03 Oct -3.8 20:45:45 10° W 20:48:56 80° NW 20:48:56 80° NW visible
04 Oct -3.9 19:53:16 10° W 19:56:33 86° NNW 19:58:28 23° E visible
04 Oct -1.4 21:29:46 10° W 21:31:06 22° W 21:31:06 22° W visible
